TimeEST,TemperatureF,Dew PointF,Humidity,Sea Level PressureIn,VisibilityMPH,Wind Direction,Wind SpeedMPH,Gust SpeedMPH,PrecipitationIn,Events,Conditions,WindDirDegrees,DateUTC
12:56 AM,37.0,33.1,86,30.17,10.0,Calm,Calm,-,N/A,,Clear,0,2012-11-26 05:56:00
1:56 AM,36.0,32.0,86,30.17,10.0,Calm,Calm,-,N/A,,Clear,0,2012-11-26 06:56:00
2:56 AM,34.0,30.9,89,30.17,10.0,Calm,Calm,-,N/A,,Clear,0,2012-11-26 07:56:00
3:56 AM,34.0,30.9,89,30.18,10.0,Calm,Calm,-,N/A,,Clear,0,2012-11-26 08:56:00
4:56 AM,33.1,30.0,89,30.18,10.0,Calm,Calm,-,N/A,,Clear,0,2012-11-26 09:56:00
5:56 AM,33.1,30.0,89,30.20,10.0,Calm,Calm,-,N/A,,Clear,0,2012-11-26 10:56:00
6:56 AM,30.9,28.9,92,30.22,10.0,Calm,Calm,-,N/A,,Clear,0,2012-11-26 11:56:00
7:56 AM,36.0,32.0,86,30.24,10.0,Calm,Calm,-,N/A,,Clear,0,2012-11-26 12:56:00
8:56 AM,48.9,37.9,66,30.25,10.0,Calm,Calm,-,N/A,,Clear,0,2012-11-26 13:56:00
9:56 AM,57.9,30.9,36,30.27,10.0,Calm,Calm,-,N/A,,Clear,0,2012-11-26 14:56:00
10:56 AM,63.0,30.0,29,30.26,10.0,Variable,3.5,-,N/A,,Clear,0,2012-11-26 15:56:00
11:56 AM,68.0,27.0,21,30.24,10.0,Calm,Calm,-,N/A,,Clear,0,2012-11-26 16:56:00
12:56 PM,69.1,27.0,21,30.21,10.0,Calm,Calm,-,N/A,,Partly Cloudy,0,2012-11-26 17:56:00
1:56 PM,70.0,28.0,21,30.19,10.0,ESE,4.6,-,N/A,,Partly Cloudy,120,2012-11-26 18:56:00
2:56 PM,71.1,26.1,19,30.17,10.0,SSW,4.6,-,N/A,,Scattered Clouds,200,2012-11-26 19:56:00
3:56 PM,66.0,39.9,38,30.18,10.0,ENE,8.1,-,N/A,,Mostly Cloudy,70,2012-11-26 20:56:00
4:56 PM,61.0,39.9,46,30.19,10.0,ENE,6.9,-,N/A,,Mostly Cloudy,70,2012-11-26 21:56:00
5:56 PM,55.0,43.0,64,30.19,10.0,ENE,4.6,-,N/A,,Mostly Cloudy,70,2012-11-26 22:56:00
6:56 PM,55.0,45.0,69,30.21,10.0,NE,3.5,-,N/A,,Mostly Cloudy,50,2012-11-26 23:56:00
7:56 PM,52.0,45.0,77,30.21,10.0,Calm,Calm,-,N/A,,Mostly Cloudy,0,2012-11-27 00:56:00
8:56 PM,48.9,44.1,83,30.22,10.0,Calm,Calm,-,N/A,,Scattered Clouds,0,2012-11-27 01:56:00
9:56 PM,46.9,43.0,86,30.21,10.0,Calm,Calm,-,N/A,,Scattered Clouds,0,2012-11-27 02:56:00
10:56 PM,46.9,44.1,90,30.21,10.0,Calm,Calm,-,N/A,,Mostly Cloudy,0,2012-11-27 03:56:00
11:56 PM,45.0,43.0,93,30.20,10.0,Calm,Calm,-,N/A,,Mostly Cloudy,0,2012-11-27 04:56:00